Flag for Malaysia Weather past 2 weeks in Johor Bahru, Malaysia

Now
91 °F

Broken clouds.


Feels Like: 97 °F
Forecast: 75 / 91 °F
Wind: 9 mph from North

Location: Singapore / Paya Lebar

Current Time: Mar 6, 2015 at 2:50:02 PM

Latest Report: Mar 6, 2015 at 2:00 PM


Visibility: N/A

Pressure: 29.83 "Hg

Humidity: 49%

Dew point: 70 °F

Location of Johor BahruLocation

Historic Weather in Johor Bahru — Graph

°F

Johor Bahru temperature yesterday

Maximum temperature yesterday: 93 °F (at 3:00 PM)
Minimum temperature yesterday: 77 °F (at 5:00 AM)
Average temperature yesterday: 84 °F

Past Weeks' High & Low Weather Summary

 TemperatureHumidityPressure
High93 °F (Feb 23, 2:00 PM)94% (Feb 23, 5:00 AM)29.95 "Hg (Feb 23, 5:00 AM)
Low77 °F (Feb 20, 5:00 AM)49% (Feb 19, 3:00 PM)29.71 "Hg (Feb 27, 5:00 PM)
Average84 °F72%29.84 "Hg
* Reported Feb 19 2:00 PM — Mar 6 2:00 PM, Johor Bahru, Weather by CustomWeather, © 2015

Note: Actual official high and low records may vary slightly from our data, if they occured in-between our weather recording intervals... More about our weather records

Advertising

Johor Bahru weather history for previous 24 hours

 ConditionsComfort  
Time TempWeatherWind HumidityBarometerVisibility
2:00 PM
Fri, Mar 6
91 °FBroken clouds.9 mph49%29.83 "HgN/A
1:00 PM88 °FPartly sunny.9 mph55%29.86 "HgN/A
12:00 PM88 °FPartly sunny.10 mph55%29.92 "HgN/A
11:00 AM86 °FPartly sunny.7 mph59%29.92 "HgN/A
10:00 AM82 °FPartly sunny.9 mph70%29.95 "HgN/A
9:00 AM81 °FPartly sunny.7 mph74%29.92 "Hg5 mi
8:00 AM77 °FPartly sunny.2 mph89%29.89 "Hg5 mi
7:00 AM79 °FPassing clouds.1 mph84%29.86 "HgN/A
6:00 AM79 °FPassing clouds.6 mph84%29.86 "HgN/A
5:00 AM77 °FPassing clouds.6 mph83%29.86 "HgN/A
11:00 PM
Thu, Mar 5
81 °FPassing clouds.6 mph79%29.92 "HgN/A
10:00 PM81 °FPassing clouds.7 mph74%29.89 "HgN/A
9:00 PM81 °FPassing clouds.8 mph74%29.86 "HgN/A
8:00 PM82 °FPassing clouds.8 mph70%29.83 "HgN/A
7:00 PM84 °FScattered clouds.10 mph66%29.80 "HgN/A
6:00 PM86 °FPartly sunny.12 mph62%29.77 "HgN/A
5:00 PM90 °FPartly sunny.14 mph52%29.77 "HgN/A
4:00 PM91 °FPartly sunny.14 mph49%29.77 "HgN/A
3:00 PM93 °FPartly sunny.9 mph53%29.80 "HgN/A
2:00 PM91 °FPartly sunny.9 mph52%29.83 "HgN/A
Weather by CustomWeather, © 2015

See weather overviewHow to use our weather pages